TimeMST,TemperatureF,Dew PointF,Humidity,Sea Level PressureIn,VisibilityMPH,Wind Direction,Wind SpeedMPH,Gust SpeedMPH,PrecipitationIn,Events,Conditions,WindDirDegrees,DateUTC
12:00 AM,28.4,24.8,86,30.01,1.8,NW,8.1,-,0.00,Snow,Light Snow,320,2013-02-18 07:00:00
12:32 AM,26.6,23.0,86,30.02,2.5,NW,6.9,-,0.01,Snow,Light Snow,320,2013-02-18 07:32:00
12:43 AM,26.6,21.2,80,30.02,4.0,NNW,8.1,-,0.01,Snow,Light Snow,340,2013-02-18 07:43:00
12:53 AM,27.0,21.9,81,30.16,9.0,NNW,8.1,-,0.01,Snow,Light Snow,330,2013-02-18 07:53:00
1:12 AM,26.6,21.2,80,30.03,2.5,NW,9.2,-,0.00,Snow,Light Snow,320,2013-02-18 08:12:00
1:25 AM,26.6,21.2,80,30.03,2.5,West,6.9,-,0.00,Snow,Light Snow,280,2013-02-18 08:25:00
1:44 AM,26.6,19.4,74,30.03,4.0,NNW,6.9,-,0.00,Snow,Light Snow,330,2013-02-18 08:44:00
1:53 AM,26.1,21.0,81,30.17,7.0,Calm,Calm,-,0.00,Snow,Light Snow,0,2013-02-18 08:53:00
2:53 AM,27.0,21.0,78,30.18,8.0,Calm,Calm,-,0.00,Snow,Light Snow,0,2013-02-18 09:53:00
3:53 AM,25.0,21.0,85,30.18,7.0,West,5.8,-,0.00,Snow,Light Snow,270,2013-02-18 10:53:00
4:53 AM,24.8,19.4,80,30.04,10.0,SW,3.5,-,N/A,,Overcast,230,2013-02-18 11:53:00
5:53 AM,25.0,19.9,81,30.21,10.0,Calm,Calm,-,N/A,,Overcast,0,2013-02-18 12:53:00
6:53 AM,21.2,17.6,86,30.04,10.0,Calm,Calm,-,N/A,,Scattered Clouds,0,2013-02-18 13:53:00
7:53 AM,19.0,16.0,88,30.23,10.0,Calm,Calm,-,N/A,,Clear,0,2013-02-18 14:53:00
8:53 AM,21.9,18.0,85,30.23,10.0,Calm,Calm,-,N/A,,Clear,0,2013-02-18 15:53:00
9:53 AM,26.1,19.0,75,30.21,10.0,Calm,Calm,-,N/A,,Clear,0,2013-02-18 16:53:00
10:53 AM,27.0,19.9,75,30.20,10.0,Calm,Calm,-,N/A,,Clear,0,2013-02-18 17:53:00
11:53 AM,28.0,21.9,78,30.19,10.0,Calm,Calm,-,N/A,,Mostly Cloudy,0,2013-02-18 18:53:00
12:53 PM,30.9,24.1,76,30.14,10.0,ESE,6.9,-,N/A,,Scattered Clouds,110,2013-02-18 19:53:00
1:53 PM,34.0,25.0,70,30.10,10.0,East,11.5,-,N/A,,Scattered Clouds,90,2013-02-18 20:53:00
2:53 PM,36.0,23.0,59,30.06,10.0,ESE,11.5,-,N/A,,Clear,110,2013-02-18 21:53:00
3:53 PM,36.0,19.9,52,30.04,10.0,ESE,11.5,-,N/A,,Clear,110,2013-02-18 22:53:00
4:53 PM,36.0,19.0,50,30.01,10.0,East,5.8,-,N/A,,Clear,90,2013-02-18 23:53:00
5:53 PM,34.0,17.1,50,30.01,10.0,WNW,3.5,-,N/A,,Clear,290,2013-02-19 00:53:00
6:53 PM,32.0,18.0,56,30.02,10.0,Calm,Calm,-,N/A,,Clear,0,2013-02-19 01:53:00
7:53 PM,28.0,19.9,72,30.03,10.0,NW,4.6,-,N/A,,Clear,310,2013-02-19 02:53:00
8:53 PM,28.0,19.0,69,30.02,10.0,West,4.6,-,N/A,,Clear,270,2013-02-19 03:53:00
9:53 PM,27.0,19.0,72,30.01,10.0,Calm,Calm,-,N/A,,Clear,0,2013-02-19 04:53:00
10:53 PM,25.0,18.0,75,30.01,10.0,Calm,Calm,-,N/A,,Clear,0,2013-02-19 05:53:00
11:53 PM,27.0,18.0,69,29.99,10.0,Calm,Calm,-,N/A,,Scattered Clouds,0,2013-02-19 06:53:00